Weather Roundup
Issued by NWS Corpus Christi, TX

Home | Current Version | Previous Version | Text Only | Print | Product List | Glossary On
Versions: 1 2 3 4 5 6 7 8 9 10 11 12 13 14 15 16 17 18 19 20 21 22 23 24 25 26 27 28 29 30 31 32 33 34 35 36 37 38 39 40 41 42 43 44 45 46 47 48 49 50
000
ASUS44 KCRP 232211
HRRCRP

SOUTH TEXAS REGIONAL WEATHER ROUNDUP
NATIONAL WEATHER SERVICE CORPUS CHRISTI TX
500 PM CDT WED AUG 23 2017


TXZ229>244-232300-
...CORPUS CHRISTI AREA OBSERVATIONS...

CITY           SKY/WX    TMP DP  RH WIND       PRES   REMARKS
CORPUS CHRISTI MOSUNNY   94  68  42 E21       29.85F HX  98
NAS CORPUS CHR MOSUNNY   92  75  57 E16       29.86F HX 103
ROCKPORT       SUNNY     92  74  55 SE15      29.85F HX 101
KINGSVILLE ARP FAIR      95  70  44 E9        29.84S HX 101
KINGSVILLE NAS PTSUNNY   99  69  37 E15G24    29.84F HX 105
ALICE          MOSUNNY   98  65  33 SE15      29.82F HX 101
FALFURRIAS     MOSUNNY   94  69  44 CALM      29.83F HX  99
$$

...VICTORIA AREA OBSERVATIONS...

CITY           SKY/WX    TMP DP  RH WIND       PRES   REMARKS
PORT LAVACA    MOSUNNY   93  71  47 E16       29.85F HX 100
VICTORIA       MOSUNNY   99  66  33 SE16      29.83F HX 103
BEEVILLE       CLOUDY    99  65  32 E9        29.84F HX 102
PLEASANTON     MOSUNNY   99  60  27 E7        29.86F HX 100
SAN ANTONIO    MOSUNNY   96  62  32 VRB3      29.88F HX  97
$$

...LAREDO AREA OBSERVATIONS...

CITY           SKY/WX    TMP DP  RH WIND       PRES   REMARKS
LAREDO         MOSUNNY  100  59  25 NE7       29.83F HX 100
COTULLA        MOSUNNY   99  58  25 E14       29.84F HX  98
DEL RIO        CLOUDY    82  73  74 CALM      29.93F
MCALLEN        MOSUNNY   95  69  42 E13       29.83F HX 100
HEBBRONVILLE   MOSUNNY   98  58  26 E10       29.85F HX  97
$$

...OTHER TEXAS OBSERVATIONS...

CITY           SKY/WX    TMP DP  RH WIND       PRES   REMARKS
BROWNSVILLE    MOSUNNY   92  75  57 NE15      29.85S HX 103
HOUSTON        PTSUNNY   89  74  60 SE13      29.86F HX  98
COL. STATION   MOSUNNY   98  65  33 SE9       29.83F HX 101
AUSTIN         PTSUNNY   93  68  43 N14       29.86F HX  97
WACO           CLOUDY    92  69  47 N16       29.88F HX  97
FORT WORTH     PTSUNNY   90  70  51 VRB5      29.92F HX  95
WICHITA FALLS  PTSUNNY   86  69  56 NE14      29.96F HX  90
LUBBOCK        PTSUNNY   79  67  66 E13       30.08F
EL PASO        PTSUNNY   92  60  34 NE3       30.01F THUNDER HX  91
$$

...MARINE OBSERVATIONS...

STATION/POSITION TIME  SKY/WX   TEMP    WIND        PRES    VSBY  WAVE   SWELL
                                AIR SEA DIR/SP/G                  HT/PER HT/PER
                 (UTC)          (F)     (DEG/KT/KT) (MB)    (MI)  (FT/S) (FT/S)
PORT ARANSAS     2200            84 88  100/ 15/ 16 1011.4F
BUOY 90 E PORT A 2150            84 86   50/ 10/ 12 1011.4F         3/ 7   2/ 7
BUOY 45 SE BAFFI 2150            85      70/ 12/ 14 1010.3F         3/ 6   2/ 6
BUOY 200 E PT IS 2150            84 88   90/ 16/ 17 1010.4F         4/ 6
BUOY 15 E GALVES 2050            84 88   40/ 12/ 14 1012.2          2/ 5   2/ 6
$$



USA.gov is the U.S. government's official web portal to all federal, state and local government web resources and services.